This demonstration page uses our WeatherBlox Daily Observations layout. Learn more.

Left ArrowRight Arrow

Hourly Observations for May 10, 2022

Temp ( °F °C ) Dew Point ( °F °C ) Humidity (%) Winds ( mph kmh ) Pressure ( in mb ) Visibility ( mi km ) Precip ( " mm )
12:53 am 00:53 Clear 78 25.6 72 22.2 82 82 S 23 37 29.66 1004 8 13 0.00 0.00
1:53 am 01:53 Clear 77 25 71 21.7 82 82 S 17 28 29.67 1005 8 13 0.00 0.00
2:53 am 02:53 Clear 76 24.4 71 21.7 85 85 S 18 30 29.67 1005 8 13 0.00 0.00
3:53 am 03:53 Clear 75 23.9 71 21.7 88 88 S 18 30 29.68 1005 7 11 0.00 0.00
4:53 am 04:53 Clear 75 23.9 71 21.7 88 88 S 17 28 29.69 1006 7 11 0.00 0.00
5:53 am 05:53 Clear 74 23.3 71 21.7 91 91 S 18 30 29.71 1006 8 13 0.00 0.00
6:53 am 06:53 Mostly Sunny 74 23.3 71 21.7 91 91 S 13 20 29.75 1007 7 11 0.00 0.00
7:53 am 07:53 Partly Cloudy with Mist and Fog 75 23.9 71 21.7 88 88 S 16 26 29.77 1008 5 8 0.00 0.00
8:53 am 08:53 Hazy 78 25.6 72 22.2 82 82 S 21 33 29.79 1009 5 8 0.00 0.00
9:53 am 09:53 Hazy 81 27.2 72 22.2 74 74 S 18 30 29.80 1009 6 10 0.00 0.00
10:53 am 10:53 Hazy 84 28.9 72 22.2 67 67 S 21 33 29.82 1010 6 10 0.00 0.00
11:53 am 11:53 Sunny 86 30 72 22.2 63 63 SSW 20 31 29.83 1010 7 11 0.00 0.00
12:53 pm 12:53 Sunny 89 31.7 73 22.8 59 59 SSW 18 30 29.83 1010 8 13 0.00 0.00
1:53 pm 13:53 Sunny 91 32.8 73 22.8 56 56 SSW 13 20 29.83 1010 8 13 0.00 0.00
2:53 pm 14:53 Mostly Sunny 92 33.3 73 22.8 54 54 SSW 16 26 29.83 1010 8 13 0.00 0.00
3:53 pm 15:53 Mostly Sunny 93 33.9 72 22.2 50 50 S 13 20 29.83 1010 10 16 0.00 0.00
4:53 pm 16:53 Mostly Sunny 93 33.9 73 22.8 52 52 S 17 28 29.82 1010 10 16 0.00 0.00
5:53 pm 17:53 Mostly Sunny 91 32.8 76 24.4 61 61 S 17 28 29.83 1010 10 16 0.00 0.00
6:53 pm 18:53 Mostly Sunny 89 31.7 74 23.3 61 61 S 15 24 29.83 1010 10 16 0.00 0.00
7:53 pm 19:53 Mostly Sunny 86 30 74 23.3 67 67 SSE 18 30 29.82 1010 10 16 0.00 0.00
8:53 pm 20:53 Mostly Clear 82 27.8 73 22.8 74 74 SSE 13 20 29.86 1011 10 16 0.00 0.00
9:53 pm 21:53 Mostly Cloudy 81 27.2 74 23.3 79 79 S 17 28 29.90 1013 10 16 0.00 0.00
10:53 pm 22:53 Mostly Cloudy 79 26.1 73 22.8 82 82 SSE 17 28 29.91 1013 10 16 0.00 0.00
11:53 pm 23:53 Mostly Cloudy with Haze 78 25.6 72 22.2 82 82 S 15 24 29.94 1014 6 10 0.00 0.00

Powered by AerisWeather